Weather History for Novato, CA

Change the Weather History Date:

Friday, May 16, 2014

  Actual Average (KAPC) Record (KAPC)
Temperature  
Mean Temperature 64 °F 59 °F  
Max Temperature 82 °F 72 °F 95 °F (2009)
Min Temperature 46 °F 46 °F 37 °F (1999)
Degree Days  
Heating Degree Days 1    
Month to date heating degree days  
Since 1 July heating degree days  
Cooling Degree Days 0    
Month to date cooling degree days  
Year to date cooling degree days  
Growing Degree Days 14 (Base 50)    
Moisture  
Dew Point 48 °F    
Average Humidity 64    
Maximum Humidity 94    
Minimum Humidity 28    
Precipitation  
Precipitation 0.00 in - 0.35 in (2011)
Month to date precipitation  
Year to date precipitation  
Since 1 July precipitation  
Sea Level Pressure  
Sea Level Pressure 30.03 in    
Wind  
Wind Speed 5 mph (SW)    
Max Wind Speed 17 mph    
Max Gust Speed 22 mph    
Visibility 10 miles    
Events      
T = Trace of Precipitation, MM = Missing Value Source: NWS Daily Summary

Daily Weather History Graph

Daily Weather History Graph

Search for Another Location

Airport:

Trip Planner

Search our weather history database for the weather conditions in past years. The results will help you decide how hot, cold, wet, or windy it might be!

Date:

Astronomy

May. 16, 2014 Rise Set
Actual Time 5:58 AM PDT 8:15 PM PDT
Civil Twilight 5:28 AM PDT 8:44 PM PDT
Nautical Twilight 4:52 AM PDT 9:21 PM PDT
Astronomical Twilight 4:12 AM PDT 10:01 PM PDT
Moon 10:27 PM PDT (5/16) 7:45 AM PDT (5/16)
Length of Visible Light 15h 15m
Length of Day
14h 16m
Waning Gibbous, 95% of the Moon is Illuminated
May 16
Waning Gibbous
May 21
Last Quarter
May 28
New
Jun 5
First Quarter
Jun 12
Full

Hourly Weather History & Observations

Time (PDT) Temp. Dew Point Humidity Pressure Visibility Wind Dir Wind Speed Gust Speed Precip Events Conditions
12:15 AM 53.6 °F 46.4 °F 77% 30.08 in 10.0 mi NNE 5.8 mph - N/A   Clear
12:35 AM 53.6 °F 48.2 °F 82% 30.08 in 10.0 mi North 8.1 mph - N/A   Clear
12:55 AM 53.6 °F 48.2 °F 82% 30.08 in 10.0 mi NNE 5.8 mph - N/A   Clear
1:15 AM 51.8 °F 48.2 °F 88% 30.08 in 10.0 mi North 4.6 mph - N/A   Clear
1:35 AM 50.0 °F 48.2 °F 94% 30.07 in 10.0 mi NNW 4.6 mph - N/A   Clear
1:55 AM 50.0 °F 48.2 °F 94% 30.07 in 10.0 mi Calm Calm - N/A   Clear
2:15 AM 50.0 °F 48.2 °F 94% 30.07 in 10.0 mi Calm Calm - N/A   Clear
2:35 AM 50.0 °F 48.2 °F 94% 30.07 in 10.0 mi Calm Calm - N/A   Clear
2:55 AM 51.8 °F 46.4 °F 82% 30.06 in 10.0 mi Calm Calm - N/A   Clear
3:15 AM 50.0 °F 44.6 °F 82% 30.06 in 10.0 mi Calm Calm - N/A   Clear
3:35 AM 50.0 °F 46.4 °F 87% 30.06 in 10.0 mi NNW 3.5 mph - N/A   Clear
3:55 AM 48.2 °F 46.4 °F 93% 30.06 in 10.0 mi Calm Calm - N/A   Clear
4:15 AM 50.0 °F 48.2 °F 94% 30.06 in 10.0 mi NW 3.5 mph - N/A   Clear
4:35 AM 48.2 °F 46.4 °F 93% 30.06 in 10.0 mi NW 4.6 mph - N/A   Clear
4:55 AM 50.0 °F 46.4 °F 87% 30.06 in 10.0 mi Calm Calm - N/A   Clear
5:15 AM 50.0 °F 46.4 °F 87% 30.06 in 10.0 mi Calm Calm - N/A   Clear
5:35 AM 48.2 °F 46.4 °F 93% 30.06 in 10.0 mi Calm Calm - N/A   Clear
5:55 AM 48.2 °F 46.4 °F 93% 30.06 in 10.0 mi Calm Calm - N/A   Clear
6:15 AM 46.4 °F 44.6 °F 93% 30.06 in 9.0 mi Calm Calm - N/A   Clear
6:35 AM 46.4 °F 44.6 °F 93% 30.07 in 10.0 mi Calm Calm - N/A   Clear
6:55 AM 48.2 °F 46.4 °F 93% 30.06 in 10.0 mi Calm Calm - N/A   Clear
7:15 AM 50.0 °F 46.4 °F 87% 30.07 in 10.0 mi Calm Calm - N/A   Clear
7:35 AM 51.8 °F 48.2 °F 88% 30.07 in 10.0 mi NNE 3.5 mph - N/A   Clear
7:55 AM 51.8 °F 48.2 °F 88% 30.07 in 10.0 mi North 3.5 mph - N/A   Clear
8:15 AM 53.6 °F 48.2 °F 82% 30.08 in 10.0 mi NNE 3.5 mph - N/A   Clear
8:35 AM 55.4 °F 48.2 °F 77% 30.08 in 10.0 mi Calm Calm - N/A   Clear
8:55 AM 57.2 °F 48.2 °F 72% 30.08 in 10.0 mi Calm Calm - N/A   Clear
9:15 AM 59.0 °F 48.2 °F 67% 30.08 in 10.0 mi Calm Calm - N/A   Clear
9:35 AM 60.8 °F 48.2 °F 63% 30.08 in 10.0 mi Calm Calm - N/A   Clear
9:55 AM 64.4 °F 48.2 °F 56% 30.07 in 10.0 mi Calm Calm - N/A   Clear
10:15 AM 64.4 °F 48.2 °F 56% 30.08 in 10.0 mi NNE 3.5 mph - N/A   Partly Cloudy
10:35 AM 66.2 °F 46.4 °F 49% 30.07 in 10.0 mi NE 3.5 mph - N/A   Clear
10:55 AM 68.0 °F 48.2 °F 49% 30.07 in 10.0 mi Calm Calm - N/A   Clear
11:15 AM 69.8 °F 48.2 °F 46% 30.07 in 10.0 mi Calm Calm - N/A   Clear
11:35 AM 71.6 °F 48.2 °F 43% 30.07 in 10.0 mi Calm Calm - N/A   Clear
11:55 AM 71.6 °F 50.0 °F 46% 30.06 in 10.0 mi ENE 3.5 mph - N/A   Clear
12:15 PM 75.2 °F 50.0 °F 41% 30.05 in 10.0 mi WSW 6.9 mph - N/A   Clear
12:35 PM 77.0 °F 51.8 °F 41% 30.05 in 10.0 mi SW 9.2 mph - N/A   Clear
12:55 PM 77.0 °F 50.0 °F 39% 30.04 in 10.0 mi SSW 5.8 mph - N/A   Clear
1:15 PM 77.0 °F 53.6 °F 44% 30.04 in 10.0 mi NE 4.6 mph - N/A   Clear
1:35 PM 80.6 °F 51.8 °F 37% 30.03 in 10.0 mi SW 10.4 mph - N/A   Clear
1:55 PM 80.6 °F 50.0 °F 34% 30.03 in 10.0 mi West 8.1 mph - N/A   Clear
2:15 PM 80.6 °F 50.0 °F 34% 30.03 in 10.0 mi SW 11.5 mph - N/A   Clear
2:35 PM 80.6 °F 50.0 °F 34% 30.02 in 10.0 mi SSW 13.8 mph - N/A   Clear
2:55 PM 82.4 °F 50.0 °F 32% 30.02 in 10.0 mi WSW 9.2 mph - N/A   Clear
3:15 PM 80.6 °F 51.8 °F 37% 30.02 in 10.0 mi WSW 13.8 mph - N/A   Clear
3:35 PM 78.8 °F 48.2 °F 34% 30.01 in 10.0 mi SW 15.0 mph 20.7 mph N/A   Clear
3:55 PM 78.8 °F 48.2 °F 34% 30.00 in 10.0 mi WSW 12.7 mph - N/A   Clear
4:15 PM 78.8 °F 46.4 °F 32% 30.00 in 10.0 mi WSW 17.3 mph 21.9 mph N/A   Clear
4:35 PM 78.8 °F 46.4 °F 32% 29.99 in 10.0 mi WSW 13.8 mph - N/A   Clear
4:55 PM 77.0 °F 44.6 °F 32% 29.99 in 10.0 mi West 12.7 mph 18.4 mph N/A   Clear
5:15 PM 77.0 °F 41.0 °F 28% 29.98 in 10.0 mi West 9.2 mph 20.7 mph N/A   Clear
5:35 PM 77.0 °F 41.0 °F 28% 29.98 in 10.0 mi WSW 8.1 mph 18.4 mph N/A   Clear
5:55 PM 75.2 °F 46.4 °F 36% 29.98 in 10.0 mi ESE 3.5 mph - N/A   Clear
6:15 PM 73.4 °F 46.4 °F 38% 29.98 in 10.0 mi South 12.7 mph - N/A   Clear
6:35 PM 68.0 °F 48.2 °F 49% 29.97 in 10.0 mi SSW 15.0 mph - N/A   Clear
6:55 PM 68.0 °F 48.2 °F 49% 29.97 in 10.0 mi SSW 13.8 mph - N/A   Clear
7:15 PM 66.2 °F 48.2 °F 52% 29.97 in 10.0 mi SSW 11.5 mph 17.3 mph N/A   Clear
7:35 PM 64.4 °F 48.2 °F 56% 29.97 in 10.0 mi SW 4.6 mph 16.1 mph N/A   Clear
7:55 PM 62.6 °F 48.2 °F 59% 29.98 in 10.0 mi South 3.5 mph - N/A   Clear
8:15 PM 62.6 °F 48.2 °F 59% 29.98 in 10.0 mi SSW 6.9 mph - N/A   Clear
8:35 PM 62.6 °F 48.2 °F 59% 29.97 in 10.0 mi South 9.2 mph - N/A   Clear
8:55 PM 60.8 °F 48.2 °F 63% 29.97 in 10.0 mi East 6.9 mph - N/A   Clear
9:15 PM 59.0 °F 48.2 °F 67% 29.98 in 10.0 mi SE 4.6 mph - N/A   Clear
9:35 PM 59.0 °F 48.2 °F 67% 29.98 in 10.0 mi ESE 8.1 mph - N/A   Clear
9:55 PM 59.0 °F 50.0 °F 72% 29.98 in 10.0 mi ESE 4.6 mph - N/A   Clear
10:15 PM 57.2 °F 50.0 °F 77% 29.98 in 10.0 mi ESE 6.9 mph - N/A   Clear
10:35 PM 57.2 °F 50.0 °F 77% 29.98 in 10.0 mi ESE 5.8 mph - N/A   Clear
10:55 PM 57.2 °F 50.0 °F 77% 29.99 in 10.0 mi East 8.1 mph - N/A   Clear
11:15 PM 57.2 °F 50.0 °F 77% 29.99 in 10.0 mi East 5.8 mph - N/A   Clear
11:35 PM 55.4 °F 50.0 °F 82% 29.99 in 10.0 mi East 5.8 mph - N/A   Clear
11:55 PM 55.4 °F 50.0 °F 82% 29.99 in 10.0 mi East 6.9 mph - N/A   Clear